Wind_Speed
101 102 102 102 104 102 95 85 93 94 92 92 92 86 88 95 96 97 96 94 94 91 89 88 86 84 86 88 86 84 77 76 77 77 79 78 78 78
110 110 110 109 108 103 95 94 99 92 89 85 93 93 99 99 99 97 97 91 90 88 89 88 88 90 91 91 87 83 78 76 75 77 78 78 79 79
120 121 120 115 110 104 93 95 89 96 92 101 101 103 102 103 99 97 90 88 85 91 90 91 91 91 88 86 85 77 74 76 76 77 80 82 84 85
127 122 116 112 110 106 103 101 102 99 97 99 102 102 102 100 97 93 86 81 82 86 87 87 86 86 81 75 75 76 77 77 81 84 86 89 92 94
113 112 112 109 105 105 102 99 98 94 93 92 95 96 97 93 84 82 83 84 85 78 78 80 82 79 78 80 81 82 83 85 87 89 92 92 92 94
100 100 100 99 98 97 93 92 89 88 86 85 83 86 84 81 77 76 77 77 81 81 78 77 79 80 84 86 87 87 86 86 86 87 91 96 100 100
79 82 87 88 87 87 82 79 81 82 81 78 78 77 76 75 74 73 72 71 75 77 79 83 85 88 93 93 91 88 87 89 92 97 103 105 101 95
63 68 71 67 63 62 62 64 66 67 68 70 68 65 63 65 67 70 74 77 81 86 84 89 89 92 92 91 91 93 95 97 100 104 99 92 87 83
27 30 33 34 36 42 46 47 48 50 53 55 58 62 66 70 73 78 81 83 86 88 86 90 92 94 97 98 100 101 98 95 91 87 83 79 73 70
15 17 19 22 24 28 32 37 42 47 53 58 63 68 73 77 80 84 86 89 91 92 89 93 99 100 104 101 96 89 82 79 77 73 69 66 62 63
20 20 22 26 31 35 41 46 50 55 60 65 69 73 78 81 85 88 90 93 96 99 97 100 100 96 93 84 80 74 70 65 62 61 60 59 58 60
27 30 32 35 39 44 49 54 59 63 67 72 77 82 86 89 91 94 96 99 99 99 92 90 86 79 78 73 66 58 56 52 54 54 54 54 54 57
37 39 42 45 48 52 56 61 66 70 75 80 83 87 90 93 95 95 93 89 85 83 80 77 73 68 62 60 58 49 50 47 46 47 51 52 49 49
43 44 47 50 54 58 62 67 72 76 80 84 88 91 92 88 83 81 79 77 74 70 66 62 59 54 52 53 55 52 48 40 41 41 44 47 46 47
45 47 51 55 60 64 68 72 75 78 84 84 81 81 79 76 74 73 68 65 62 58 54 54 49 47 48 48 50 46 43 36 37 38 39 42 43 43
51 54 59 64 68 71 73 74 78 83 79 78 78 76 72 69 64 61 59 55 51 47 43 46 45 44 41 38 40 42 40 41 37 38 37 38 39 40
57 63 68 72 73 74 75 78 81 73 75 78 76 71 64 59 56 54 50 46 42 41 40 40 39 35 33 34 35 36 36 36 36 36 36 35 35 40
64 69 72 76 75 76 79 80 69 69 75 75 71 65 57 54 51 46 43 39 40 39 38 35 30 27 28 29 29 30 29 31 30 32 33 36 35 35
69 72 74 74 78 80 78 68 67 72 74 73 66 60 56 49 45 41 36 36 36 36 32 30 27 27 26 26 25 25 27 28 29 24 27 30 33 28
70 71 74 78 80 76 67 66 70 72 71 67 61 57 51 44 40 36 33 36 32 29 26 26 25 23 24 23 22 22 24 27 30 30 28 27 29 29
70 74 77 79 78 69 68 68 71 70 69 61 56 52 45 40 35 32 33 32 28 24 22 23 21 21 20 20 22 21 22 22 24 29 30 31 31 29
73 77 79 81 72 70 71 69 67 68 65 58 53 46 40 35 32 31 30 27 22 22 21 21 20 18 16 18 21 22 20 22 24 26 31 33 34 37
76 80 82 78 68 70 70 67 66 65 61 55 49 42 38 32 31 31 28 22 19 21 21 20 18 16 16 15 16 22 21 22 25 24 22 26 29 29
Wind_Direction
280 280 282 284 287 289 291 283 283 293 293 287 286 282 285 290 290 292 291 291 289 287 287 290 293 294 295 296 295 291 287 282 280 277 278 277 274 272
280 281 283 284 285 285 286 276 286 288 290 284 288 282 287 289 290 289 289 287 284 284 285 287 288 288 292 291 291 288 283 279 278 276 275 276 276 274
282 283 283 283 283 282 279 279 276 283 280 279 287 287 288 287 289 290 287 284 279 281 283 285 288 289 287 286 286 283 282 281 282 282 281 279 276 274
282 281 280 281 280 280 279 279 277 280 279 278 281 282 285 286 288 287 287 284 285 285 285 284 285 288 288 284 285 285 285 285 283 281 278 277 275 274
276 276 276 277 278 277 278 279 278 278 277 278 278 280 284 287 287 286 287 287 287 287 287 285 288 286 286 286 285 284 284 282 281 282 280 279 279 278
273 274 273 273 275 275 276 277 276 277 278 280 281 282 285 287 288 285 287 286 286 287 287 286 286 286 286 286 285 284 285 285 285 285 286 285 283 280
268 269 272 273 275 275 272 273 274 275 277 279 281 283 286 287 288 286 285 287 288 287 288 289 289 289 288 289 290 291 291 291 292 291 288 285 284 283
269 272 274 275 275 275 273 274 275 278 279 280 285 290 286 286 286 287 287 287 287 287 287 288 288 289 290 293 293 293 293 293 292 287 285 285 286 284
292 289 287 285 282 279 281 283 285 285 286 286 286 284 286 287 289 290 289 288 288 289 292 294 295 295 295 294 294 293 294 292 289 288 288 287 286 283
333 321 315 311 301 294 292 291 290 289 288 289 290 291 291 292 291 291 292 293 295 296 297 295 294 294 293 292 292 293 294 291 289 289 288 287 287 284
337 322 313 309 304 302 300 298 296 295 295 295 294 293 293 293 294 295 296 295 295 295 296 293 292 292 292 294 294 294 292 290 290 290 291 290 288 286
325 322 317 311 307 305 303 302 301 299 298 297 296 296 296 296 296 295 295 294 294 294 294 294 294 295 295 293 292 292 291 291 292 291 288 287 286 286
320 317 314 311 308 306 304 303 302 300 299 299 299 297 296 294 294 295 295 294 295 295 295 295 295 296 295 294 296 295 293 295 291 290 290 292 294 293
314 313 311 309 307 305 303 302 301 301 301 300 298 297 297 298 297 297 297 296 296 297 297 295 295 297 298 297 296 299 296 299 295 294 294 296 299 299
310 309 308 307 306 305 305 305 305 305 305 303 302 301 302 303 301 299 298 297 298 298 297 296 299 299 297 297 296 297 303 302 304 303 302 300 300 299
308 307 306 306 307 309 309 309 309 309 307 306 307 309 307 305 302 301 300 299 298 298 297 298 298 297 297 295 299 305 306 309 308 305 305 304 302 297
307 306 307 308 310 312 313 313 311 310 308 310 312 311 308 306 303 301 301 301 301 301 300 298 297 297 299 300 301 302 304 306 306 308 308 308 308 305
308 308 309 311 315 316 316 315 314 313 313 313 314 312 311 308 305 303 303 304 303 302 300 297 295 297 295 297 300 302 305 309 312 311 309 308 309 304
309 310 312 315 318 318 319 318 316 317 316 316 316 314 312 309 305 304 304 304 305 303 300 298 302 304 304 304 300 304 310 311 312 311 309 306 306 304
311 313 315 318 320 321 321 320 319 318 317 318 316 314 312 308 306 306 307 307 305 300 297 300 303 304 302 304 308 312 319 322 324 323 319 321 322 320
313 315 317 320 322 321 321 320 320 319 319 319 316 314 310 308 306 305 307 305 302 297 296 295 299 302 301 305 308 318 317 323 330 334 332 332 329 325
314 316 319 322 320 320 322 322 321 320 321 320 317 314 309 307 306 307 308 304 299 298 297 301 303 301 304 307 307 311 325 334 334 339 339 336 334 331
315 317 320 321 319 320 323 322 321 321 321 320 316 311 308 307 307 310 308 301 299 298 300 303 301 304 308 299 306 317 322 330 333 335 334 328 324 324
Height
10579 10576 10574 10571 10568 10568 10566 10555 10541 10543 10538 10533 10528 10525 10520 10515 10508 10504 10496 10489 10485 10478 10473 10469 10467 10465 10461 10459 10457 10455 10451 10448 10448 10447 10447 10445 10444 10443
10553 10550 10550 10549 10546 10548 10551 10539 10528 10527 10519 10503 10505 10503 10500 10495 10489 10484 10477 10470 10463 10457 10452 10450 10448 10445 10442 10438 10434 10430 10425 10423 10423 10422 10420 10419 10417 10415
10523 10519 10518 10519 10520 10522 10528 10524 10504 10508 10505 10489 10484 10479 10474 10468 10464 10458 10452 10448 10441 10434 10432 10430 10426 10424 10420 10415 10410 10405 10402 10400 10399 10397 10393 10389 10386 10383
10489 10488 10488 10492 10490 10492 10493 10495 10492 10487 10483 10474 10467 10461 10453 10447 10440 10435 10429 10426 10421 10414 10412 10408 10405 10401 10395 10390 10385 10381 10379 10377 10375 10372 10367 10361 10355 10351
10462 10463 10464 10465 10465 10466 10466 10466 10465 10461 10457 10453 10446 10439 10432 10426 10420 10414 10409 10404 10399 10393 10390 10386 10383 10378 10373 10367 10363 10359 10356 10353 10349 10343 10335 10328 10321 10316
10436 10438 10439 10441 10442 10443 10443 10442 10440 10436 10432 10428 10423 10417 10411 10406 10401 10395 10389 10384 10377 10371 10368 10364 10358 10353 10346 10341 10337 10333 10330 10327 10320 10311 10302 10292 10283 10276
10413 10415 10418 10420 10420 10420 10419 10418 10416 10414 10412 10408 10402 10396 10392 10387 10382 10375 10368 10361 10353 10348 10346 10337 10333 10327 10316 10310 10306 10302 10298 10292 10286 10277 10265 10253 10246 10242
10395 10400 10400 10401 10400 10399 10400 10399 10397 10396 10393 10390 10384 10380 10374 10369 10362 10354 10348 10342 10334 10323 10325 10314 10310 10300 10288 10280 10275 10270 10265 10262 10254 10238 10227 10219 10216 10210
10385 10387 10388 10388 10388 10388 10387 10386 10384 10381 10378 10374 10369 10362 10356 10349 10343 10334 10326 10320 10309 10301 10302 10290 10277 10268 10258 10249 10243 10237 10235 10228 10213 10203 10196 10190 10186 10181
10385 10385 10384 10382 10382 10381 10379 10376 10373 10370 10365 10359 10352 10343 10336 10328 10320 10310 10302 10292 10281 10271 10275 10268 10248 10242 10229 10221 10216 10211 10206 10196 10185 10178 10172 10166 10161 10155
10384 10385 10383 10380 10377 10374 10371 10366 10362 10356 10349 10341 10333 10324 10314 10305 10296 10285 10276 10268 10257 10244 10245 10234 10221 10216 10200 10194 10189 10186 10179 10171 10164 10156 10150 10144 10139 10131
10384 10380 10377 10373 10369 10365 10360 10353 10346 10338 10330 10321 10311 10301 10291 10280 10270 10261 10250 10240 10232 10219 10214 10201 10188 10190 10177 10168 10169 10167 10158 10153 10145 10138 10131 10126 10120 10114
10378 10374 10369 10364 10359 10353 10346 10338 10330 10320 10310 10300 10290 10279 10267 10256 10245 10235 10225 10212 10202 10193 10187 10176 10167 10163 10159 10148 10141 10146 10139 10136 10129 10123 10114 10109 10105 10099
10370 10365 10359 10353 10347 10341 10333 10324 10314 10304 10293 10280 10267 10253 10240 10229 10217 10207 10198 10187 10179 10171 10163 10158 10152 10147 10140 10133 10124 10122 10121 10122 10113 10108 10101 10095 10091 10084
10362 10356 10350 10343 10336 10328 10319 10309 10297 10284 10270 10255 10241 10227 10216 10205 10193 10183 10176 10166 10160 10155 10148 10139 10136 10131 10126 10119 10109 10109 10105 10106 10100 10094 10089 10083 10078 10073
10353 10346 10338 10330 10321 10312 10300 10288 10275 10260 10245 10231 10218 10205 10193 10182 10173 10164 10157 10151 10145 10141 10136 10127 10123 10117 10112 10107 10102 10095 10094 10090 10089 10084 10080 10074 10067 10060
10342 10333 10323 10313 10304 10293 10281 10268 10252 10237 10223 10209 10196 10185 10174 10165 10158 10149 10141 10136 10131 10125 10122 10116 10111 10106 10102 10098 10094 10090 10085 10082 10078 10074 10068 10064 10058 10048
10328 10318 10307 10296 10285 10274 10260 10244 10230 10217 10203 10189 10176 10165 10157 10149 10141 10135 10128 10123 10118 10114 10109 10105 10102 10100 10096 10092 10087 10083 10079 10074 10071 10066 10061 10053 10050 10043
10313 10302 10291 10280 10268 10254 10239 10225 10213 10200 10185 10172 10159 10149 10141 10136 10129 10123 10118 10113 10108 10102 10098 10095 10093 10090 10086 10083 10080 10076 10072 10069 10065 10061 10055 10049 10042 10037
10296 10285 10274 10263 10250 10236 10223 10210 10198 10183 10169 10157 10145 10136 10128 10122 10117 10112 10108 10102 10099 10094 10091 10087 10086 10083 10080 10076 10074 10071 10067 10061 10056 10051 10045 10041 10034 10027
10280 10269 10258 10246 10232 10219 10208 10195 10182 10168 10155 10144 10134 10124 10117 10111 10108 10103 10099 10094 10090 10087 10085 10082 10080 10077 10074 10071 10068 10066 10062 10057 10050 10044 10038 10031 10026 10021
10264 10253 10241 10229 10216 10205 10194 10181 10168 10154 10141 10130 10121 10113 10106 10102 10098 10094 10090 10085 10082 10080 10078 10075 10074 10071 10068 10065 10063 10060 10057 10052 10047 10042 10034 10027 10018 10010
10248 10236 10224 10213 10201 10191 10179 10167 10154 10141 10129 10118 10110 10102 10097 10093 10089 10085 10081 10077 10075 10073 10071 10070 10068 10065 10063 10060 10058 10055 10051 10047 10042 10039 10035 10027 10019 10013